EHI
0 0 0 0 0 0 0 0 0 0 0 0 0 0 0 0 0 0 0 0 0 0 0 0 0 0 0 0 0 0 0 0 0 0 0 0 0 0
0 0 0 0 0 0 0 0 0 0 0 0 0 0 0 0 0 0 0 0 0 0 0 0 0 0 0 0 0 0 0 0 0 0 0 0 0 0
0 0 0 0 0 0 0 0 0 0 0 0 0 0 0 0 0 0 0 0 0 0 0 0 0 0 0 0 0 0 0 0 0 0 0 0 0 0
0 0 0 0 0 0 0 0 0 0 0 0 0 0 0 0 0 0 0 0 0 0 0 0 0 0 0 0 0 0 0 0 0 0 0 0 0 0
0 0 0 0 0 0 0 0 0 0 0 0 0 0 0 0 0 0 0 0 0 0 0 0 0 0 0 0 0 0 0 0 0 0 0 0 0 0
0 0 0 0 0 0 0 0 0 0 0 0 0 0 0 0 0 0 0 0 0 0 0 0 0 0 0 0 0 0 0 0 0 0 0 0 0 0
0 0 0 0 0 0 0 0 0 0 0 0 0 0 0 0 0 0 0 0 0 0 0 0 0 0 0 0 0 0 0 0 0 0 0 0 0 0
0 0 0 0 0 0 0 0 0 0 0 0 0 0 0 0 0 0 0 0 0 0 0 0 0 0 0 0 0 0 0 0 0 0 0 0 0 0
0 0 0 0 0 0 0 0 0 0 0 0 0 0 0 0 0 0 0 0 0 0 0 0 0 0 0 0 0 0 0 0 0 0 0 0 0 0
0 0 0 0 0 0 0 0 0 0 0 0 0 0 0 0 0 0 0 0 0 0 0 0 0 0 0 0 0 0 0 0 0 0 0 0 0 0
0 0 0 0 0 0 0 0 0 0 0 0 0 0 0 0 0 0 0 0 0 0 0 0 0 0 0 0 0 0 0 0 0 0 0 0 0 0
0 0 0 0 0 0 0 0 0 0 0 0 0 0 0 0 0 0 0 0 0 0 0 0 0 0 0 0 0 0 0 0 0 0 0 0 0 0
0 0 0 0 0 0 0 0 0 0 0 0 0 0 0 0 0 0 0 0 0 0 0 0 0 0 0 0 0 0 0 0 0 0 0 0 0 0
0 0 0 0 0 0 0 0 0 0 0 0 0 0 0 0 0 0 0 0 0 0 0 0 0 0 0 0 0 0 0 0 0 0 0 0 0 0
0 0 0 0 0 0 0 0 0 0 0 0 0 0 0 0 0 0 0 0 0 0 0 0 0 0 0 0 0 0 0 0 0 0 0 0 0 0
0 0 0 0 0 0 0 0 0 0 0 0 0 0 0 0 0 0 0 0 0 0 0 0 0 0 0 0 0 0 0 0 0 0 0 0 0 0
0 0 0 0 0 0 0 0 0 0 0 0 0 0 0 0 0 0 0 0 0 0 0 0 0 0 0 0 0 0 0 0 0 0 0 0 0 0
0 0 0 0 0 0 0 0 0 0 0 0 0 0 0 0 0 0 0 0 0 0 0 0 0 0 0 0 0 0 0 0 0 0 0 0 0 0
0 0 0 0 0 0 0 0 0 0 0 0 0 0 0 0 0 0 0 0 0 0 0 0 0 0 0 0 0 0 0 0 0 0 0 0 0 0
0 0 0 0 0 0 0 0 0 0 0 0 0 0 0 0 0 0 0 0 0 0 0 0 0 0 0 0 0 0 0 0 0 0 0 0 0 0
0 0 0 0 0 0 0 0 0 0 0 0 0 0 0 0 0 0 0 0 0 0 0 0 0 0 0 0 0 0 0 0 0 0 0 0 0 0
0 0 0 0 0 0 0 0 0 0 0 0 0 0 0 0 0 0 0 0 0 0 0 0 0 0 0 0 0 0 0 0 0 0 0 0 0 0
0 0 0 0 0 0 0 0 0 0 0 0 0 0 0 0 0 0 0 0 0 0 0 0 0 0 0 0 0 0 0 0 0 0 0 0 0 0
Wind_Speed
2 2 1 1 1 1 1 3 3 3 3 2 2 1 1 1 1 2 2 2 2 2 2 2 3 3 3 4 4 4 4 4 3 4 4 4 5 6
2 3 2 1 2 1 1 1 1 2 3 2 2 2 2 2 2 2 2 2 3 3 3 3 3 3 3 4 4 4 4 5 4 5 5 5 5 6
3 3 3 2 2 2 2 1 1 1 2 2 1 1 2 2 2 2 2 2 2 3 3 4 4 4 4 4 4 4 5 5 5 5 5 5 5 6
4 4 3 3 3 2 2 3 2 2 2 2 2 2 3 3 3 2 2 2 2 4 3 4 4 5 4 4 5 5 5 5 6 6 6 6 6 7
5 5 4 4 3 3 3 3 2 2 2 2 2 2 2 2 2 2 2 2 2 3 4 4 4 5 5 5 5 6 6 6 6 6 6 6 7 7
4 5 5 5 5 4 3 3 3 2 2 2 2 2 2 2 2 2 2 2 2 2 3 3 4 4 4 5 6 6 6 7 7 7 6 6 7 7
4 4 5 5 6 5 4 3 3 3 3 3 3 2 2 3 3 2 2 2 2 2 1 2 2 2 3 5 5 6 7 7 8 7 7 7 7 7
5 4 4 4 6 7 7 7 6 5 4 4 3 4 4 3 3 3 2 2 3 2 2 3 2 3 3 3 5 6 6 7 7 7 7 7 7 7
4 4 3 3 4 3 4 5 5 7 7 6 5 6 5 5 4 4 4 4 4 3 2 3 2 3 3 3 5 6 6 6 7 7 7 7 7 8
4 4 4 4 4 4 3 3 4 4 5 4 5 5 4 4 5 5 4 3 2 2 2 3 3 3 3 2 5 6 6 6 6 7 7 6 6 7
4 4 4 4 5 5 4 4 4 4 4 5 6 5 6 6 5 2 3 3 3 2 2 2 2 2 2 2 4 5 5 5 7 7 8 7 7 7
3 4 5 5 6 6 5 4 5 4 3 3 3 4 3 4 6 4 4 4 2 2 2 2 1 1 2 2 1 2 2 5 7 8 8 8 8 4
3 3 3 6 7 7 6 4 6 4 3 3 3 2 2 2 2 2 3 4 3 3 2 2 1 1 2 2 2 2 2 2 3 4 6 8 8 5
3 3 3 6 7 8 6 5 5 4 2 2 2 2 2 2 2 2 1 1 2 3 3 3 2 3 2 3 3 2 2 2 2 2 3 6 7 7
3 4 5 5 5 4 5 5 3 2 2 2 3 3 2 2 2 1 0 0 0 1 2 2 2 3 3 3 3 2 3 3 2 2 2 3 3 3
3 3 4 4 3 2 2 2 2 2 2 3 2 2 1 2 2 2 1 1 1 2 1 2 2 3 3 3 3 3 3 3 2 2 3 3 3 3
2 2 1 1 2 1 1 1 1 1 2 1 1 2 2 2 2 1 1 2 2 2 2 1 1 1 2 2 3 3 3 3 3 2 3 4 4 4
2 1 2 2 2 2 1 1 1 2 2 2 2 2 2 2 2 2 2 2 3 3 3 2 1 1 2 2 4 4 3 3 3 3 3 4 5 3
1 1 1 1 1 1 1 2 2 2 1 2 2 2 2 2 2 3 2 2 3 3 3 2 2 2 2 4 3 3 3 3 2 3 3 3 5 5
0 0 0 0 1 1 1 1 1 1 1 2 2 2 2 3 3 3 3 3 3 3 2 2 3 3 4 4 3 3 4 4 3 3 3 3 4 6
1 1 1 1 1 1 1 1 1 1 1 2 2 2 2 2 3 3 3 4 3 3 4 4 3 3 1 0 2 3 3 4 4 3 3 2 3 3
1 1 1 1 1 1 1 1 1 1 1 2 2 2 2 2 3 3 3 3 3 3 3 2 1 1 1 3 4 4 3 3 3 5 5 5 3 3
1 1 1 1 1 1 1 1 1 2 2 2 2 2 2 2 2 3 3 3 2 2 2 2 2 1 2 3 3 3 3 3 3 2 3 6 8 9
Wind_Direction
194 179 180 194 184 186 176 172 172 201 229 207 196 203 184 175 209 203 199 246 262 260 278 293 305 307 309 312 319 329 317 298 299 294 291 295 302 303
195 183 187 198 190 183 190 214 196 187 219 215 214 197 193 219 235 209 204 246 252 252 261 271 280 288 290 296 301 312 317 298 283 278 278 283 290 295
209 197 197 184 191 193 194 214 220 182 221 250 252 198 194 203 222 214 214 208 228 249 255 266 271 271 277 281 292 297 298 301 289 279 279 281 286 289
207 204 205 195 197 206 200 214 221 210 194 234 243 225 217 208 211 212 228 230 223 245 252 263 268 269 269 272 280 289 293 291 288 284 281 281 282 285
206 205 207 198 205 209 212 214 217 226 201 203 229 239 226 212 207 228 230 234 243 244 247 254 264 268 267 269 272 277 283 285 287 283 282 279 278 279
209 209 210 204 203 205 217 218 214 210 197 196 215 233 226 215 197 216 241 231 244 259 256 261 264 270 274 274 278 278 280 284 288 287 278 279 276 274
214 212 213 214 219 220 221 212 207 208 206 207 213 235 227 208 212 213 238 248 254 241 242 252 250 253 261 266 273 277 278 279 279 281 281 276 276 273
211 212 214 219 225 238 242 239 227 217 213 214 226 227 228 227 222 217 225 246 258 228 238 262 227 242 251 252 268 274 278 282 278 278 281 274 273 274
211 210 221 221 227 218 239 253 251 248 239 227 226 231 223 218 216 218 221 234 254 239 241 260 230 242 243 256 263 273 282 284 286 287 287 285 279 275
215 211 209 207 221 217 215 232 240 247 246 238 229 235 235 216 213 224 227 237 275 248 221 254 252 254 256 240 250 260 272 284 292 292 289 291 293 287
222 217 209 206 228 234 219 223 242 256 264 257 259 258 258 248 233 212 209 215 254 255 221 226 257 280 273 255 250 253 269 284 292 294 294 293 292 291
220 219 226 229 232 234 219 212 230 247 250 258 270 275 259 237 234 218 206 215 233 244 213 193 240 280 279 264 246 248 264 276 283 288 291 293 292 290
224 224 226 239 241 242 241 227 235 246 236 227 236 244 229 216 222 221 213 208 214 236 207 185 225 239 244 274 276 260 253 272 283 287 290 290 290 286
223 229 230 244 246 245 247 247 248 253 229 223 228 224 218 217 216 212 206 225 226 230 208 195 218 222 233 257 268 267 272 265 266 279 283 290 292 291
234 238 241 243 245 240 254 261 251 227 211 227 231 230 222 209 194 187 178 79 335 258 225 228 219 217 226 240 248 255 274 269 250 259 274 283 282 281
248 250 247 247 249 255 256 254 251 236 235 233 232 227 208 202 204 196 210 214 249 281 256 225 215 216 241 248 241 256 252 249 256 268 273 276 275 267
233 228 218 212 205 209 210 217 233 249 265 257 232 228 230 225 230 215 206 208 227 239 255 254 240 245 243 232 241 246 248 261 261 267 275 277 274 264
243 226 229 219 212 214 215 230 240 246 247 247 239 233 236 232 233 229 219 222 229 232 231 219 198 316 313 283 234 233 241 252 263 265 269 270 276 272
238 229 232 239 254 252 239 241 249 256 254 246 247 238 236 238 235 228 226 233 236 232 226 208 201 207 249 274 271 228 234 255 263 269 267 267 270 275
37 305 280 295 285 269 260 258 260 260 252 252 250 241 233 232 233 229 227 232 240 239 232 220 215 220 228 243 263 276 248 240 245 259 273 283 279 280
354 349 333 309 294 283 280 277 269 267 266 268 263 256 240 228 233 230 228 235 242 236 232 235 232 231 228 226 276 280 277 261 258 252 256 275 287 284
339 326 326 322 309 293 283 276 274 272 267 266 266 258 250 240 239 237 230 228 234 241 248 252 222 210 223 236 252 263 280 295 289 280 267 248 234 242
326 322 318 312 305 292 282 274 269 270 268 267 262 254 244 245 251 246 233 228 231 239 244 246 252 255 257 248 253 260 268 284 295 303 294 289 275 270